Regional Weather Roundup
Issued by NWS State College, PA

Home | Current Version | Previous Version | Text Only | Print | Product List | Glossary On
Versions: 1 2 3 4 5 6 7 8 9 10 11 12 13 14 15 16 17 18 19 20 21 22 23 24 25 26 27 28 29 30 31 32 33 34 35 36 37 38 39 40 41 42 43 44 45 46 47 48 49 50
867
ASUS41 KCTP 201910
RWRCTP

REGIONAL WEATHER ROUNDUP
NATIONAL WEATHER SERVICE STATE COLLEGE PA
200 PM EST MON NOV 20 2017

Note: "fair" indicates few or no clouds below 12,000 feet with no
significant weather and/or obstructions to visibility.

* = STATION THAT DOES NOT REPORT PRECIPITATION /E.G. RAIN...SNOW...ETC/
    THUNDER OR FOG.

PAZ002>004-007>009-013>016-020>023-029>032-202000-
WESTERN PENNSYLVANIA

CITY           SKY/WX    TMP DP  RH WIND       PRES   REMARKS
ERIE           SUNNY     42  26  53 S18G24    29.99F
MEADVILLE      SUNNY     38  25  59 SW10G21   30.01F
FRANKLIN*      SUNNY     38  24  57 SW12G23   30.02F
NEW CASTLE     FAIR      42  24  49 SW10      30.07F
BEAVER COUNTY  SUNNY    N/A N/A N/A S13       30.07F
BUTLER*        SUNNY     40  22  48 SW14      30.07F
PITTSBURGH INT MOSUNNY   40  22  48 SW12G21   30.08F
PITTSBURGH     SUNNY     41  20  43 SW16      30.08F
INDIANA*       SUNNY     41  25  52 W14       30.11S
LATROBE        SUNNY     41  23  48 SW17G25   30.11F
WASHINGTON CO* SUNNY     42  23  46 SW12      30.13F
$$

PAZ004>006-010>012-017>019-024>028-033>037-041-042-045-046-049>053-202000-
CENTRAL PENNSYLVANIA

CITY           SKY/WX    TMP DP  RH WIND       PRES   REMARKS
BRADFORD       CLOUDY    35  24  64 VRB7G20   29.97S
DUBOIS         SUNNY     37  23  56 SW13      30.01F
CLEARFIELD     SUNNY     41  24  51 SW14G20   30.04S
JOHNSTOWN      SUNNY     37  22  54 W14       30.04S
ALTOONA        SUNNY     44  24  45 W12       30.07S
STATE COLLEGE  SUNNY     43  25  49 W17       30.05S
WILLIAMSPORT   MOSUNNY   46  26  45 SW9       30.04S
SELINSGROVE    SUNNY     45  26  47 SW8       30.08S
FT INDIANTOWN  SUNNY     45  22  40 SW18      30.08S
CAPITAL CITY   SUNNY     48  20  32 W15G21    30.11S
HARRISBURG     MOSUNNY   47  23  38 W13G25    30.10S
YORK           SUNNY     45  23  42 SW10      30.11F
$$

PAZ038>040-043-044-047-048-054-055-060>062-067>071-202000-
EASTERN PENNSYLVANIA

CITY           SKY/WX    TMP DP  RH WIND       PRES   REMARKS
SCRANTON       CLOUDY    40  25  55 SW14G22   30.02R
MOUNT POCONO   MOSUNNY   35  24  64 W18G31    29.97
ALLENTOWN      SUNNY     46  24  42 W16G22    30.06R
QUAKERTOWN*    CLEAR     45  25  45 W10G18    30.07R
READING        SUNNY     46  26  45 W15       30.08R
LANCASTER      SUNNY     46  24  42 SW17      30.10S
COATESVILLE    CLEAR     45  23  42 W10G18    30.11S
POTTSTOWN      SUNNY     45  24  43 SW9       30.11S
BLUE BELL      SUNNY     45  25  45 SW13G20   30.10S
DOYLESTOWN     SUNNY     44  23  43 W13G22    30.07R
WILLOW GROVE   NOT AVBL
NORTH PHILA    SUNNY     48  25  40 SW17      30.10F
PHILADELPHIA   MOSUNNY   47  22  37 W22       30.12S
$$




USA.gov is the U.S. government's official web portal to all federal, state and local government web resources and services.